Other Public Products
Issued by NWS Grand Forks, ND

Home | Current Version | Previous Version | Graphics & Text | Print | Product List | Glossary On
Versions: 1 2 3 4 5 6 7 8 9 10 11 12 13 14 15 16 17 18 19 20 21 22 23 24 25 26 27 28 29 30 31 32 33 34 35 36 37 38 39 40 41 42 43 44 45 46 47 48 49 50
000
FPUS83 KFGF 270631
OPUFGF
PRAIRIE TO PINES WEATHER ROUNDUP
NATIONAL WEATHER SERVICE EASTERN NORTH DAKOTA/GRAND FORKS ND
100 AM CDT FRI MAR 27 2015

 **SATELLITE DATA USED TO AUGMENT SKY COVER AT AUTOMATED STATIONS**
 *****  WEATHER ACROSS EASTERN NORTH DAKOTA  *****

CITY           SKY/WX    TMP DP  RH WIND       PRES   REMARKS
GRAND FORKS    CLEAR     15  11  83 CALM      30.31R
6HR MIN TEMP:  15; 6HR MAX TEMP:  29;

GRAND FORKS AF CLEAR     14  11  88 CALM      30.31R
GRAND CITY NWS   N/A     14 N/A N/A NE1         N/A
BUXTON           N/A     19  14  82 CALM        N/A
DEVILS LAKE    CLEAR     21  16  79 S7        30.25S WCI  13
6HR MIN TEMP:  21; 6HR MAX TEMP:  30;

FARGO          CLEAR     16   9  74 W3        30.31S
6HR MIN TEMP:  13; 6HR MAX TEMP:  32;

WAHPETON ARPT  CLEAR     18   7  62 N5        30.31R WCI  11
$$

 *****  WEATHER ACROSS CENTRAL AND WESTERN NORTH DAKOTA  *****

CITY           SKY/WX    TMP DP  RH WIND       PRES   REMARKS
JAMESTOWN      CLEAR     20  13  74 SE5       30.27R WCI  13
6HR MIN TEMP:  17; 6HR MAX TEMP:  32;

BISMARCK       MOCLDY    25  17  72 E7        30.25R WCI  17
6HR MIN TEMP:  22; 6HR MAX TEMP:  38;

MINOT          PTCLDY    27  18  69 SE10      30.18F WCI  17
6HR MIN TEMP:  26; 6HR MAX TEMP:  36;

MINOT AFB      PTCLDY    27  23  84 S13       30.17F WCI  16
6HR MIN TEMP:  26; 6HR MAX TEMP:  36;

GARRISON         N/A     27  20  75 SE8       30.19S WCI  19
6HR MIN TEMP:  25; 6HR MAX TEMP:  38;

WILLISTON      CLOUDY    37  28  70 S5        30.10F
6HR MIN TEMP:  37; 6HR MAX TEMP:  45;

DICKINSON      CLOUDY    32  27  81 S12       30.11F WCI  23
6HR MIN TEMP:  32; 6HR MAX TEMP:  37;

HETTINGER      CLOUDY    32  27  81 S9        30.16F WCI  24
6HR MIN TEMP:  31; 6HR MAX TEMP:  39;

$$

 *****  OTHER OBSERVATIONS NORTHEAST NORTH DAKOTA  *****

CITY           SKY/WX    TMP DP  RH WIND       PRES   REMARKS
WALHALLA         N/A     16  16 100 SE3       30.29F
LANGDON        NOT AVBL
CAVALIER       FAIR      19  10  68 SE3       30.30F
GRAFTON        NOT AVBL
CANDO          FAIR      23  19  86 S8        30.25F WCI  14
FORT TOTTEN      N/A     20  15  79 SE5       29.95S WCI  13
ROLLA          FAIR      23  21  93 S8        30.22F WCI  14
RUGBY            N/A     25  19  80 S12       30.22F WCI  14
 ***** THE ABOVE OBSERVATIONS ARE NON NWS ARE NOT QUALITY
        CONTROLLED AND MAY MIS-REPORT RAIN FOR SNOW...
$$

 *****  OTHER OBSERVATIONS SOUTHEAST NORTH DAKOTA *****

CITY           SKY/WX    TMP DP  RH WIND       PRES   REMARKS
COOPERSTOWN    NOT AVBL
VALLEY CITY    FAIR      19  18  93 E3        30.28F
OAKES            N/A     18  18 100 NE3       30.29S
GWINNER        CLEAR     21  14  73 NE7         N/A  WCI  13
BUFFALO        NOT AVBL
WYNDMERE         N/A     18  12  79 NW3         N/A
 ***** THE ABOVE OBSERVATIONS ARE NON NWS ARE NOT QUALITY
       CONTROLLED AND MAY MIS-REPORT RAIN FOR SNOW...
$$

  *****  WEATHER ACROSS NORTHERN MINNESOTA  *****

CITY           SKY/WX    TMP DP  RH WIND       PRES   REMARKS
FLAG ISLAND    CLEAR     14   5  67 CALM      30.27F
WARROAD        CLEAR     16   9  73 NW3       30.29S
ROSEAU         CLEAR     18  10  73 CALM      30.29S
HALLOCK        CLEAR     14   7  73 E3        30.30F
THF RVR FALLS  CLEAR     18  10  73 N5        30.29S WCI  11
6HR MIN TEMP:  18; 6HR MAX TEMP:  27;

HALSTAD          N/A     15   9  76 NW5         N/A  WCI   7
FOSSTON        CLEAR     12   9  85 CALM      30.28S
BAUDETTE       CLEAR     14   6  70 NW3       30.27R
6HR MIN TEMP:  12; 6HR MAX TEMP:  24;

WASKISH        CLEAR     10   7  85 CALM      30.27S
CROOKSTON      CLEAR     19  10  68 NE3       30.31F
$$
  *****  WEATHER ACROSS CENTRAL AND WEST MINNESOTA  *****

CITY           SKY/WX    TMP DP  RH WIND       PRES   REMARKS
BEMIDJI        CLEAR      8   1  75 NW5       30.26R WCI  -1
PARK RAPIDS    CLEAR     15   1  53 N5        30.24R WCI   8
6HR MIN TEMP:  14; 6HR MAX TEMP:  29;

WADENA         CLEAR     14   9  79 CALM      30.25S
DETROIT LAKES  CLEAR     18  12  79 NW3       30.27S
MOORHEAD       CLEAR     16  10  79 CALM      30.31S
FERGUS FALLS   CLEAR     16   9  73 N3        30.31S
ELBOW LAKE     FAIR      18  12  78 NW5       30.27S WCI  11
6HR MIN TEMP:  17; 6HR MAX TEMP:  29;

MORRIS MN      CLEAR     19  14  79 NW6       30.27R WCI  11
STAPLES        CLEAR     12   1  62 N3        30.25S
WHEATON        CLEAR     18  10  73 NW5       30.32S WCI  11
$$
  *****  WEATHER ELSEWHERE ACROSS MINNESOTA  *****

CITY           SKY/WX    TMP DP  RH WIND       PRES   REMARKS
DULUTH         CLEAR     17   1  49 NE8       30.21R WCI   7
6HR MIN TEMP:  17; 6HR MAX TEMP:  27;

INTRNTL FALLS  CLEAR     11   6  81 CALM      30.25F
6HR MIN TEMP:  10; 6HR MAX TEMP:  24;

ELY            CLEAR     10   1  67 CALM      30.22S
CLOQUET        CLEAR     16  -2  45 N3        30.22S
BRAINERD       CLEAR     19   2  47 N6        30.25R WCI  11
6HR MIN TEMP:  18; 6HR MAX TEMP:  29;

HIBBING        CLEAR     12   0  58 NE3       30.23R
6HR MIN TEMP:  12; 6HR MAX TEMP:  26;

ALEXANDRIA     CLEAR     19  11  70 N3        30.25R
6HR MIN TEMP:  19; 6HR MAX TEMP:  30;

SAINT CLOUD    CLEAR     21   7  54 N6        30.24R WCI  13
6HR MIN TEMP:  21; 6HR MAX TEMP:  32;

MINNEAPOLIS    CLEAR     25   6  44 N8        30.23R WCI  16
6HR MIN TEMP:  25; 6HR MAX TEMP:  33;

$$

  *****  WEATHER ACROSS SOUTH DAKOTA  *****

CITY           SKY/WX    TMP DP  RH WIND       PRES   REMARKS
SIOUX FALLS    CLEAR     22  14  71 N7        30.26R WCI  13
6HR MIN TEMP:  22; 6HR MAX TEMP:  38;

BROOKINGS      NOT AVBL
WATERTOWN      CLEAR     18  11  74 N8        30.25S WCI   8
6HR MIN TEMP:  17; 6HR MAX TEMP:  31;

HURON          CLEAR     20  12  71 NE5       30.28S WCI  13
6HR MIN TEMP:  18; 6HR MAX TEMP:  36;

SISSETON         N/A     18  14  84 N7        30.29S WCI   9
ABERDEEN       CLEAR     19  12  74 NE5       30.30S WCI  12
6HR MIN TEMP:  19; 6HR MAX TEMP:  36;

MITCHELL       CLEAR     22  14  71 N3        30.29R
PIERRE         MOCLDY    28  20  71 E9        30.24S WCI  19
6HR MIN TEMP:  26; 6HR MAX TEMP:  36;

MOBRIDGE       PTCLDY    25  14  63 E9        30.22S WCI  15
RAPID CITY     CLOUDY    33  27  78 SE8       30.16F
6HR MIN TEMP:  33; 6HR MAX TEMP:  46;

$$

  *****  SOME WEATHER IN NEARBY STATES *****

CITY           SKY/WX    TMP DP  RH WIND       PRES   REMARKS
GLASGOW MT     MOCLDY    41  32  70 SE13      30.01F
6HR MIN TEMP:  41; 6HR MAX TEMP:  48;

GREAT FALLS MT PTCLDY    47  36  65 SW10      30.12S
6HR MIN TEMP:  46; 6HR MAX TEMP:  64;

CHEYENNE WY    CLOUDY    42  27  55 SW12      30.19R
6HR MIN TEMP:  41; 6HR MAX TEMP:  53;

SCOTTSBLUFF NE MOCLDY    41  32  70 E5        30.16R
6HR MIN TEMP:  40; 6HR MAX TEMP:  53; 6HR PCP: TRACE;

OMAHA NE       PTCLDY    32  29  88 N9        30.22R WCI  24
6HR MIN TEMP:  30; 6HR MAX TEMP:  36; 6HR PCP: TRACE;

DES MOINES IA  MOCLDY    31  19  61 N10       30.19S WCI  22
6HR MIN TEMP:  31; 6HR MAX TEMP:  42;

DAVENPORT IA   CLOUDY    30  22  72 NW8       30.12F WCI  22
6HR MIN TEMP:  27; 6HR MAX TEMP:  37;

CHICAGO IL     MOCLDY    31  16  54 N9        30.07S WCI  23
6HR MIN TEMP:  31; 6HR MAX TEMP:  37;

EAU CLAIRE WI  CLEAR     20   7  57 NE5       30.20R WCI  13
6HR MIN TEMP:  19; 6HR MAX TEMP:  31;

LA CROSSE WI   CLEAR     27  12  53 NE12      30.19R WCI  17
6HR MIN TEMP:  27; 6HR MAX TEMP:  35;

$$

  *****  SOME NATIONAL WEATHER *****

CITY           SKY/WX    TMP DP  RH WIND       PRES   REMARKS
LA GUARDIA NY  CLOUDY    44  38  79 NW10      29.70R



USA.gov is the U.S. government's official web portal to all federal, state and local government web resources and services.